User: anonymous   Login
Location: Betra
(48.4113°N, 8.6634°E)
Time: 11:39:14
(UTC+00:00)
Language:

H-2A R/B - Orbit

View from above orbital plane
View from above orbital plane
View from above satellite
View from above satellite

Ground track
Ground track

The orbit data is extracted from the following two-line orbital elements,

1 38341U 12025E   24201.20201722  .00005121  00000-0  53928-3 0  9993
2 38341  98.4219 114.7586 0051815 103.8783 256.8204 14.88868015659035
Epoch (UTC): 19 July 2024 04:50:54
Eccentricity: 0.0051815
inclination: 98.4219°
perigee height: 565 km
apogee height: 637 km
right ascension of ascending node: 114.7586°
argument of perigee: 103.8783°
revolutions per day: 14.88868015
mean anomaly at epoch: 256.8204°
orbit number at epoch: 65903

The dashed part of the orbit path shows where the satellite is in the earth's shadow,  

DLR